Wind_Speed
19 19 20 19 19 19 20 20 22 23 25 25 27 28 29 30 31 31 33 32 34 35 35 37 37 40 45 57 54 48 48 51 47 44 40 36 32 29 29 25 25 26 34 41 24
19 20 19 19 19 20 20 20 20 21 22 23 24 26 26 28 31 31 29 32 33 33 36 36 37 37 38 42 51 57 56 53 43 43 43 44 39 34 35 37 35 27 40 48 49
20 20 20 20 19 20 21 21 21 21 22 23 24 25 26 27 30 27 31 32 33 34 36 37 37 38 38 41 44 49 57 54 51 45 41 40 47 37 43 43 35 31 39 38 45
19 20 21 21 22 23 23 22 23 23 24 25 25 27 27 29 32 27 30 32 32 32 35 37 38 40 41 41 42 49 43 43 58 54 52 49 44 47 49 42 42 31 41 40 41
16 17 19 20 19 19 21 23 23 23 24 26 28 30 30 31 33 31 32 32 33 34 35 37 39 41 42 43 46 45 42 46 49 53 61 60 53 56 55 43 46 43 37 39 50
18 18 19 20 21 22 22 23 24 24 25 26 26 26 27 31 29 34 34 35 36 36 37 38 39 41 43 45 46 45 47 48 49 53 55 67 64 57 57 50 49 55 50 41 45
18 17 17 18 19 21 22 23 24 25 26 27 28 28 28 28 29 31 32 34 35 37 38 40 41 41 44 45 44 46 50 51 52 51 53 54 61 72 61 55 52 55 55 56 44
18 19 18 18 18 18 19 19 20 21 22 22 24 26 29 28 30 30 31 33 35 37 40 42 43 44 46 47 48 49 51 52 44 51 50 54 60 51 52 64 59 58 56 55 66
20 19 18 17 17 17 17 17 18 19 20 21 22 24 27 26 29 31 33 35 36 37 38 41 44 46 48 50 51 50 52 53 52 51 52 54 58 55 51 54 66 66 63 62 60
21 21 20 20 19 18 17 17 17 17 19 21 21 24 24 27 28 30 33 35 37 39 41 42 44 47 49 51 50 52 55 55 55 48 52 56 59 55 51 56 57 60 70 67 66
21 20 21 20 19 19 17 16 16 12 18 19 21 22 27 28 29 31 32 34 37 39 40 42 45 46 48 51 53 56 57 60 58 58 43 37 42 58 56 57 57 57 57 67 77
19 20 21 20 19 19 19 18 17 16 17 17 21 23 24 26 29 33 34 36 37 38 39 41 44 45 47 49 52 56 60 60 62 62 59 62 57 61 60 61 58 58 58 60 58
20 19 21 21 21 20 20 18 18 19 19 21 18 19 24 24 28 30 34 36 37 37 38 39 39 42 47 51 55 58 60 62 65 66 68 67 69 67 61 62 64 64 62 58 58
23 22 22 23 21 21 20 21 21 21 25 18 19 21 26 29 35 36 36 34 35 37 39 40 39 40 43 46 49 54 51 58 63 67 70 66 72 70 66 66 66 62 61 63 59
27 27 26 25 23 21 21 21 20 21 24 24 28 27 30 32 36 39 39 41 42 42 41 37 35 33 37 38 34 42 38 44 53 58 62 68 66 71 66 68 69 68 66 64 60
30 29 25 24 22 22 21 21 20 22 21 27 23 28 33 34 39 36 39 39 34 31 27 28 21 25 31 27 33 32 41 42 39 39 46 67 52 73 70 71 71 59 41 66 67
28 28 28 24 23 21 20 20 20 19 23 25 27 28 31 34 32 33 20 17 18 23 23 24 26 25 26 21 23 18 25 31 32 30 39 48 37 58 67 67 58 52 57 56 64
31 28 27 25 22 22 22 21 20 20 21 23 26 28 30 19 25 19 14 15 17 20 22 23 22 21 23 24 21 26 25 30 29 30 34 30 38 46 53 54 60 59 49 53 61
34 28 25 22 21 23 21 19 21 22 24 26 27 27 19 16 24 20 11 15 19 24 22 25 23 25 21 6 18 10 22 19 30 37 37 36 40 44 47 52 61 51 35 43 49
34 29 25 25 24 23 19 15 20 22 21 24 27 29 29 25 17 10 12 14 18 21 26 27 27 16 20 16 23 20 18 25 29 35 37 33 21 29 26 31 44 46 35 35 59
31 32 29 27 25 23 15 16 20 24 24 25 27 30 28 13 9 12 15 17 20 21 25 26 26 6 26 22 19 20 27 30 32 31 29 24 21 17 28 23 34 43 23 46 59
32 31 30 29 25 21 20 22 22 24 25 26 28 25 13 5 9 15 17 21 21 30 28 26 26 19 18 21 19 25 22 23 21 19 24 30 24 16 21 34 35 22 36 43 56
34 32 33 31 30 28 27 24 24 24 24 24 25 9 2 7 13 17 20 23 29 30 34 32 20 25 18 15 16 20 28 24 18 18 24 31 23 23 25 44 44 41 33 30 34
38 36 33 31 31 31 31 32 28 28 20 22 14 4 5 12 18 21 21 25 25 22 23 25 23 27 26 22 33 24 26 26 29 26 23 25 34 37 30 44 49 44 41 56 13
37 36 35 35 35 35 33 32 33 28 19 19 8 8 7 15 16 19 24 22 19 22 21 25 22 28 25 25 28 33 23 20 29 29 21 28 36 37 22 27 28 24 43 51 33
36 36 36 36 36 37 32 30 25 17 17 18 11 12 11 16 18 17 17 16 19 18 22 25 25 26 21 14 16 28 31 33 30 23 24 26 29 39 30 11 20 36 47 47 45
35 36 36 37 37 38 35 32 24 16 20 18 13 12 14 13 18 20 21 18 23 28 25 30 30 25 18 14 15 17 13 24 31 28 26 25 23 23 34 19 32 36 44 46 45
Wind_Direction
287 282 278 275 272 271 271 267 262 255 253 252 250 251 253 251 249 244 247 246 244 243 244 250 249 243 239 234 238 240 235 234 235 236 234 225 214 224 218 225 228 216 237 233 250
288 286 282 278 276 273 268 264 263 261 258 253 251 252 254 254 251 248 247 243 240 240 241 242 244 243 242 241 240 241 237 233 235 238 238 231 221 231 235 218 212 231 231 239 241
288 286 286 287 282 277 275 274 270 267 264 261 258 256 255 255 255 252 251 248 244 241 242 241 242 242 242 242 242 245 241 236 233 240 243 243 239 228 229 228 226 222 240 248 240
291 286 284 280 278 279 278 275 272 271 270 267 265 264 262 261 257 253 253 251 250 249 245 244 243 243 244 245 242 244 249 248 238 238 245 238 234 240 237 235 225 227 232 242 239
307 300 292 286 282 276 273 273 272 270 268 267 265 263 262 261 257 259 254 254 252 250 248 246 246 246 245 244 244 249 252 248 241 239 242 242 237 238 235 232 222 212 216 239 245
317 308 298 293 290 286 283 279 275 273 270 267 264 261 260 259 261 259 256 255 253 252 252 251 249 248 247 247 248 247 246 246 243 239 243 242 238 237 234 232 233 237 221 221 234
329 323 316 307 297 291 288 285 283 280 277 275 274 272 268 266 262 259 258 257 255 253 252 251 252 252 252 251 252 249 247 247 246 250 245 250 241 239 236 228 232 234 236 220 235
332 329 325 315 303 295 290 286 283 281 280 277 275 274 271 271 270 267 264 261 258 258 256 254 253 250 251 253 253 251 251 252 252 252 252 250 252 249 246 238 233 234 234 232 229
339 336 336 328 319 314 309 302 294 289 284 280 276 271 268 265 266 265 265 264 263 260 258 257 256 255 253 253 252 253 255 253 249 251 253 250 254 252 247 246 242 238 238 235 232
340 339 339 336 333 329 323 316 307 304 298 294 291 285 280 277 272 267 266 266 266 265 263 259 256 256 256 256 254 252 254 252 252 249 255 257 254 251 247 247 248 247 241 238 237
332 331 330 330 330 332 328 325 321 325 314 307 299 294 292 289 284 280 277 275 272 269 268 266 263 260 258 257 253 252 251 251 249 248 242 249 253 246 247 247 247 248 247 246 238
318 319 321 321 321 322 324 325 323 321 314 315 311 307 300 297 295 293 288 284 279 275 270 267 264 262 259 258 257 257 256 253 250 246 242 249 240 244 241 246 248 248 244 245 252
318 318 315 314 316 314 315 315 318 318 313 315 310 312 306 302 294 293 289 288 284 280 275 270 265 262 260 257 254 252 254 255 254 248 247 246 248 250 247 247 244 246 247 242 244
313 320 321 316 307 310 312 311 314 317 313 319 317 318 312 309 307 306 300 294 290 287 282 278 274 268 262 258 256 254 250 251 250 249 251 246 247 244 244 247 251 252 252 251 245
301 305 312 312 309 303 308 311 312 315 316 318 321 321 318 313 310 314 307 301 300 298 293 288 280 278 267 264 254 256 255 257 252 249 248 245 247 248 245 246 247 252 252 250 250
309 303 300 305 308 306 304 309 310 313 314 312 318 319 321 322 313 316 315 315 320 322 317 303 306 289 271 258 251 251 255 256 261 261 256 247 250 245 244 245 244 246 256 251 248
326 310 303 299 302 305 304 306 309 313 316 315 320 320 318 317 315 317 326 338 326 317 308 287 283 269 264 260 251 261 255 261 263 263 269 256 259 253 241 242 237 237 242 244 247
338 328 317 300 293 298 303 302 306 311 312 311 313 317 316 322 303 309 325 333 321 297 307 303 299 263 262 251 259 261 246 235 255 262 259 251 250 246 247 242 235 231 235 243 243
342 334 324 323 307 304 306 301 310 315 313 315 313 315 313 280 280 282 310 304 309 315 319 314 309 266 290 253 297 246 243 278 268 261 267 268 252 248 248 242 237 232 220 238 242
350 351 341 326 320 309 300 302 306 311 314 313 313 316 310 296 271 283 314 306 303 309 309 307 322 283 248 270 268 262 259 267 267 264 266 262 261 253 242 251 236 207 220 231 238
359 1 358 346 332 320 306 321 318 317 317 314 316 316 308 286 258 308 318 316 306 306 298 311 306 321 252 255 279 246 263 266 255 268 258 271 244 155 233 217 187 202 218 235 237
8 3 1 354 348 340 327 324 323 318 318 316 321 318 310 223 323 305 315 313 308 301 307 307 307 299 274 269 240 276 276 269 291 293 263 255 175 224 194 187 176 187 217 224 239
11 12 7 1 346 335 323 318 316 314 315 320 323 317 239 311 320 309 308 313 307 311 310 311 297 285 281 268 241 238 247 258 264 268 264 262 193 235 196 184 183 186 197 201 233
360 357 358 357 348 335 326 317 310 311 313 321 319 236 299 320 320 319 319 318 318 318 312 301 311 296 307 280 255 258 250 247 261 266 259 251 249 225 200 179 198 201 203 214 165
4 2 358 353 348 339 333 327 320 315 316 328 287 245 292 321 330 330 326 325 316 313 310 303 311 303 313 300 253 267 257 250 247 249 254 273 264 226 184 134 168 170 176 201 180
3 2 358 358 351 346 344 336 342 324 320 322 293 246 284 318 331 339 339 336 343 335 338 323 323 300 323 288 265 260 263 242 237 247 266 271 282 254 243 140 131 190 195 201 181
357 359 358 358 358 355 353 344 341 330 315 324 301 269 284 319 330 346 348 344 346 324 300 310 299 308 305 297 271 270 290 244 235 254 254 266 280 274 269 145 170 195 191 193 185
Height
5762 5761 5760 5759 5758 5757 5756 5755 5756 5756 5758 5758 5760 5762 5763 5765 5767 5770 5773 5777 5779 5782 5785 5786 5790 5793 5795 5800 5803 5806 5805 5808 5818 5823 5830 5832 5835 5839 5842 5846 5852 5857 5854 5850 5850
5758 5757 5757 5756 5755 5754 5753 5753 5753 5753 5753 5754 5755 5756 5757 5759 5761 5764 5768 5768 5772 5774 5776 5779 5783 5785 5787 5791 5793 5794 5796 5804 5815 5817 5819 5822 5827 5831 5834 5837 5843 5848 5845 5846 5844
5755 5754 5753 5751 5751 5750 5749 5749 5749 5749 5749 5749 5750 5751 5752 5753 5754 5760 5759 5762 5765 5767 5769 5771 5774 5776 5779 5781 5785 5787 5787 5801 5805 5809 5812 5814 5820 5820 5821 5827 5838 5845 5841 5844 5843
5752 5750 5749 5748 5747 5746 5746 5745 5745 5745 5745 5745 5746 5746 5747 5748 5750 5753 5754 5755 5757 5759 5761 5763 5766 5768 5771 5773 5775 5774 5785 5788 5797 5800 5797 5801 5808 5809 5815 5822 5830 5836 5838 5837 5838
5748 5747 5745 5744 5743 5742 5741 5740 5740 5740 5740 5740 5741 5741 5742 5743 5744 5745 5747 5748 5750 5752 5754 5755 5757 5759 5761 5763 5762 5768 5778 5778 5782 5783 5784 5792 5795 5801 5802 5812 5818 5821 5827 5832 5833
5745 5743 5741 5739 5738 5737 5736 5736 5735 5735 5735 5734 5735 5735 5736 5736 5738 5738 5739 5741 5742 5744 5746 5747 5748 5750 5751 5753 5755 5761 5762 5764 5769 5772 5773 5779 5784 5790 5796 5808 5810 5812 5817 5819 5814
5743 5740 5738 5735 5733 5732 5730 5729 5728 5728 5728 5728 5727 5728 5729 5730 5730 5731 5732 5733 5734 5735 5736 5738 5739 5741 5742 5744 5748 5749 5748 5754 5759 5764 5766 5769 5768 5773 5790 5797 5798 5801 5806 5810 5810
5742 5739 5736 5733 5730 5728 5726 5725 5723 5722 5721 5720 5720 5720 5721 5723 5722 5723 5724 5724 5725 5726 5727 5728 5729 5731 5732 5734 5736 5738 5739 5744 5759 5754 5760 5756 5754 5771 5781 5783 5786 5790 5793 5801 5801
5741 5737 5733 5730 5727 5725 5723 5721 5719 5717 5716 5715 5715 5714 5715 5716 5716 5715 5716 5716 5716 5717 5718 5719 5720 5721 5722 5723 5724 5730 5730 5731 5740 5744 5744 5742 5744 5758 5768 5768 5771 5777 5781 5786 5792
5739 5735 5731 5728 5725 5722 5719 5717 5715 5713 5712 5711 5710 5710 5709 5708 5708 5708 5708 5707 5707 5707 5707 5708 5709 5709 5710 5709 5716 5717 5715 5720 5724 5737 5730 5729 5731 5746 5753 5754 5758 5762 5766 5773 5778
5737 5733 5730 5726 5722 5719 5717 5714 5712 5711 5706 5706 5705 5704 5701 5701 5700 5699 5699 5698 5697 5697 5696 5696 5696 5697 5697 5698 5702 5698 5701 5705 5715 5719 5714 5718 5721 5730 5736 5739 5743 5749 5753 5755 5763
5734 5730 5727 5723 5720 5717 5714 5710 5708 5706 5704 5702 5700 5698 5696 5694 5692 5690 5689 5688 5687 5685 5685 5686 5684 5684 5684 5685 5687 5685 5687 5695 5697 5700 5696 5700 5700 5714 5721 5725 5730 5734 5739 5746 5754
5729 5726 5723 5719 5716 5713 5710 5707 5704 5701 5700 5698 5695 5693 5691 5689 5685 5684 5681 5677 5675 5674 5673 5672 5673 5671 5669 5671 5671 5671 5673 5677 5676 5679 5678 5690 5686 5697 5711 5713 5715 5719 5727 5735 5741
5725 5721 5718 5714 5713 5708 5706 5703 5700 5696 5693 5693 5690 5688 5684 5680 5675 5672 5669 5669 5665 5662 5660 5659 5658 5657 5656 5658 5657 5655 5660 5658 5659 5661 5664 5676 5667 5680 5696 5701 5705 5710 5716 5722 5729
5719 5715 5712 5708 5705 5703 5701 5697 5695 5692 5689 5685 5680 5679 5675 5673 5668 5662 5658 5654 5649 5647 5646 5645 5643 5642 5641 5644 5645 5643 5646 5644 5645 5645 5647 5655 5653 5670 5685 5687 5693 5696 5702 5709 5716
5711 5707 5704 5702 5700 5697 5694 5692 5690 5688 5683 5679 5678 5672 5667 5664 5659 5655 5649 5643 5639 5636 5635 5633 5634 5633 5629 5629 5629 5631 5632 5633 5633 5634 5630 5645 5641 5651 5665 5672 5679 5683 5687 5694 5701
5704 5700 5697 5695 5693 5691 5688 5687 5685 5682 5678 5674 5669 5666 5662 5658 5652 5649 5644 5642 5640 5635 5632 5629 5627 5622 5619 5621 5621 5621 5626 5625 5626 5627 5622 5630 5630 5631 5649 5655 5661 5671 5677 5682 5691
5700 5695 5690 5687 5686 5684 5682 5681 5679 5675 5672 5669 5663 5660 5656 5654 5650 5645 5642 5640 5639 5633 5627 5622 5617 5615 5615 5615 5616 5617 5617 5615 5614 5617 5616 5619 5616 5619 5630 5635 5644 5655 5665 5671 5678
5695 5691 5686 5683 5680 5678 5676 5674 5671 5668 5664 5661 5658 5653 5651 5650 5644 5641 5640 5637 5633 5627 5623 5616 5612 5608 5607 5610 5608 5610 5612 5614 5608 5606 5604 5608 5607 5611 5618 5623 5631 5647 5654 5658 5666
5692 5687 5683 5680 5676 5673 5671 5668 5666 5662 5659 5655 5650 5646 5641 5638 5635 5634 5633 5631 5627 5623 5619 5614 5605 5604 5605 5605 5606 5606 5608 5606 5603 5599 5597 5599 5600 5605 5615 5618 5625 5637 5645 5650 5655
5691 5687 5681 5676 5672 5669 5666 5664 5660 5655 5652 5649 5643 5638 5633 5630 5630 5630 5628 5625 5621 5617 5613 5609 5604 5603 5598 5599 5601 5603 5600 5600 5598 5593 5591 5591 5593 5600 5599 5609 5620 5634 5642 5639 5648
5691 5686 5681 5676 5672 5667 5664 5660 5656 5651 5647 5643 5638 5632 5627 5628 5629 5626 5624 5620 5615 5610 5607 5604 5600 5595 5593 5592 5593 5592 5593 5595 5592 5591 5589 5588 5588 5588 5589 5597 5606 5622 5628 5631 5642
5692 5687 5681 5675 5670 5664 5659 5654 5649 5646 5641 5638 5633 5629 5628 5628 5626 5623 5620 5616 5609 5605 5600 5598 5595 5588 5588 5589 5590 5586 5583 5585 5585 5585 5586 5584 5581 5582 5584 5590 5591 5595 5611 5630 5618
5693 5686 5680 5674 5667 5661 5655 5649 5644 5639 5636 5633 5629 5628 5626 5625 5622 5618 5615 5610 5604 5600 5596 5591 5589 5584 5581 5581 5576 5577 5580 5582 5580 5577 5579 5579 5571 5570 5575 5588 5591 5599 5609 5617 5618
5691 5685 5678 5672 5664 5657 5650 5644 5639 5634 5631 5628 5626 5625 5624 5622 5619 5614 5610 5605 5601 5595 5592 5586 5584 5577 5576 5571 5569 5568 5571 5573 5571 5573 5577 5575 5569 5565 5571 5583 5592 5589 5590 5609 5624
5690 5683 5676 5670 5662 5654 5647 5640 5634 5631 5628 5625 5622 5622 5622 5620 5616 5612 5607 5602 5597 5593 5588 5584 5580 5574 5571 5565 5564 5562 5562 5566 5566 5567 5573 5574 5571 5567 5564 5571 5572 5584 5596 5606 5618
5689 5682 5675 5668 5659 5651 5644 5637 5632 5629 5624 5622 5619 5619 5618 5616 5612 5608 5602 5599 5594 5590 5584 5581 5576 5569 5567 5563 5560 5557 5556 5558 5565 5564 5569 5571 5571 5569 5566 5570 5576 5588 5593 5604 5617